When you browse on this site, cookies collect data to enhance your experience and personalize the content and advertising you see.
Visit our Privacy Policy to learn more. By continuing to use the site, you agree to this use of cookies and data.
  • In Deutschland
  • Länderverzeichnis
  • Für 7 Tage
  • Wassertemperatur
  • Satellitenkarten
  • Wetterkarte
  • Widgets
  • user-avatar
    Anmelden

    Stündliche Wetter Shkoder

    Heute, 23 Juli, Dienstag

    Zeit Temperatur Niederschläge Wind Luftdruck Luftfeuchtigkeit
    00:00 +22°C° 0 mm 3 m/S 742 mmHg 74%
    01:00 +22°C° 0 mm 3 m/S 742 mmHg 76%
    02:00 +21°C° 0 mm 3 m/S 742 mmHg 76%
    03:00 +21°C° 0 mm 3 m/S 742 mmHg 75%
    04:00 +21°C° 0 mm 3 m/S 741 mmHg 75%
    05:00 +22°C° 0 mm 3 m/S 741 mmHg 70%
    06:00 +25°C° 0 mm 3 m/S 741 mmHg 65%
    07:00 +26°C° 0 mm 3 m/S 741 mmHg 60%
    08:00 +28°C° 0 mm 3 m/S 741 mmHg 54%
    09:00 +29°C° 0 mm 3 m/S 741 mmHg 47%
    10:00 +31°C° 0 mm 3 m/S 741 mmHg 40%
    11:00 +33°C° 0 mm 3 m/S 741 mmHg 37%
    12:00 +34°C° 0 mm 3 m/S 741 mmHg 35%
    13:00 +34°C° 0 mm 3 m/S 740 mmHg 32%
    14:00 +34°C° 0 mm 3 m/S 740 mmHg 32%
    15:00 +34°C° 0 mm 3 m/S 740 mmHg 32%
    16:00 +34°C° 0 mm 3 m/S 740 mmHg 32%
    17:00 +31°C° 0 mm 3 m/S 740 mmHg 38%
    18:00 +30°C° 0 mm 3 m/S 740 mmHg 43%
    19:00 +28°C° 0 mm 3 m/S 740 mmHg 49%
    20:00 +27°C° 0 mm 3 m/S 740 mmHg 51%
    21:00 +26°C° 0 mm 3 m/S 740 mmHg 54%
    22:00 +25°C° 0 mm 3 m/S 740 mmHg 56%
    23:00 +24°C° 0 mm 3 m/S 740 mmHg 59%

    Morgen, 24 Juli, Mittwoch

    Zeit Temperatur Niederschläge Wind Luftdruck Luftfeuchtigkeit
    00:00 +22°C° 0 mm 3 m/S 740 mmHg 62%
    01:00 +22°C° 0 mm 3 m/S 740 mmHg 65%
    02:00 +21°C° 0 mm 3 m/S 740 mmHg 67%
    03:00 +21°C° 0 mm 3 m/S 739 mmHg 68%
    04:00 +21°C° 0 mm 3 m/S 739 mmHg 70%
    05:00 +22°C° 0 mm 3 m/S 739 mmHg 66%
    06:00 +25°C° 0 mm 3 m/S 739 mmHg 61%
    07:00 +27°C° 0 mm 2 m/S 740 mmHg 57%
    08:00 +28°C° 0 mm 3 m/S 740 mmHg 52%
    09:00 +29°C° 0 mm 3 m/S 740 mmHg 48%
    10:00 +31°C° 0 mm 3 m/S 740 mmHg 44%
    11:00 +31°C° 0 mm 3 m/S 740 mmHg 43%
    12:00 +33°C° 0 mm 3 m/S 739 mmHg 41%
    13:00 +33°C° 0 mm 3 m/S 739 mmHg 40%
    14:00 +33°C° 0 mm 3 m/S 739 mmHg 41%
    15:00 +33°C° 0 mm 3 m/S 739 mmHg 41%
    16:00 +33°C° 0 mm 3 m/S 739 mmHg 42%
    17:00 +30°C° 0 mm 2 m/S 739 mmHg 46%
    18:00 +29°C° 0 mm 2 m/S 739 mmHg 50%
    19:00 +27°C° 0 mm 2 m/S 739 mmHg 55%
    20:00 +26°C° 0 mm 2 m/S 740 mmHg 57%
    21:00 +25°C° 0 mm 3 m/S 740 mmHg 59%
    22:00 +25°C° 0 mm 3 m/S 740 mmHg 61%
    23:00 +24°C° 0 mm 3 m/S 740 mmHg 64%

    übermorgen, 25 Juli, Donnerstag

    Zeit Temperatur Niederschläge Wind Luftdruck Luftfeuchtigkeit
    00:00 +22°C° 0 mm 3 m/S 740 mmHg 67%
    01:00 +21°C° 0 mm 3 m/S 740 mmHg 69%
    02:00 +21°C° 0 mm 3 m/S 740 mmHg 71%
    03:00 +20°C° 0 mm 3 m/S 740 mmHg 72%
    04:00 +20°C° 0 mm 3 m/S 740 mmHg 74%
    05:00 +22°C° 0 mm 3 m/S 740 mmHg 69%
    06:00 +24°C° 0 mm 3 m/S 740 mmHg 64%
    07:00 +26°C° 0 mm 3 m/S 741 mmHg 59%
    08:00 +28°C° 0 mm 3 m/S 741 mmHg 52%
    09:00 +29°C° 0 mm 3 m/S 741 mmHg 46%
    10:00 +31°C° 0 mm 3 m/S 741 mmHg 39%
    11:00 +33°C° 0 mm 3 m/S 741 mmHg 37%
    12:00 +34°C° 0 mm 3 m/S 741 mmHg 35%
    13:00 +35°C° 0 mm 3 m/S 740 mmHg 33%
    14:00 +35°C° 0 mm 3 m/S 740 mmHg 34%
    15:00 +35°C° 0 mm 2 m/S 740 mmHg 34%
    16:00 +35°C° 0 mm 2 m/S 740 mmHg 35%
    17:00 +32°C° 0 mm 2 m/S 740 mmHg 41%
    18:00 +30°C° 0 mm 2 m/S 740 mmHg 47%
    19:00 +27°C° 0 mm 1 m/S 740 mmHg 53%
    20:00 +27°C° 0 mm 1 m/S 740 mmHg 56%
    21:00 +26°C° 0 mm 1 m/S 740 mmHg 58%
    22:00 +25°C° 0 mm 2 m/S 740 mmHg 60%
    23:00 +24°C° 0 mm 2 m/S 740 mmHg 61%

    26 Juli, Freitag

    Zeit Temperatur Niederschläge Wind Luftdruck Luftfeuchtigkeit
    00:00 +24°C° 0 mm 2 m/S 740 mmHg 63%
    01:00 +24°C° 0 mm 2 m/S 740 mmHg 64%
    02:00 +24°C° 0 mm 2 m/S 739 mmHg 66%
    03:00 +23°C° 0 mm 2 m/S 739 mmHg 67%
    04:00 +23°C° 0 mm 2 m/S 739 mmHg 68%
    05:00 +25°C° 0 mm 1 m/S 739 mmHg 64%
    06:00 +26°C° 0 mm 1 m/S 739 mmHg 59%
    07:00 +26°C° 0 mm 0 m/S 739 mmHg 54%
    08:00 +30°C° 0 mm 1 m/S 739 mmHg 50%
    09:00 +31°C° 0 mm 1 m/S 738 mmHg 45%
    10:00 +34°C° 0 mm 2 m/S 738 mmHg 41%
    11:00 +34°C° 0 mm 2 m/S 738 mmHg 40%
    12:00 +34°C° 0 mm 3 m/S 738 mmHg 38%
    13:00 +35°C° 0 mm 4 m/S 737 mmHg 37%
    14:00 +34°C° 0 mm 4 m/S 737 mmHg 38%
    15:00 +34°C° 0 mm 3 m/S 737 mmHg 40%
    16:00 +33°C° 0 mm 3 m/S 736 mmHg 41%
    17:00 +31°C° 0 mm 2 m/S 736 mmHg 47%
    18:00 +29°C° 0 mm 2 m/S 736 mmHg 53%
    19:00 +27°C° 0 mm 1 m/S 736 mmHg 59%
    20:00 +26°C° 0 mm 1 m/S 736 mmHg 61%
    21:00 +25°C° 0 mm 1 m/S 736 mmHg 64%
    22:00 +22°C° 0 mm 0 m/S 736 mmHg 67%
    23:00 +22°C° 0 mm 0 m/S 736 mmHg 68%

    27 Juli, Samstag

    Zeit Temperatur Niederschläge Wind Luftdruck Luftfeuchtigkeit
    00:00 +21°C° 0 mm 0 m/S 736 mmHg 68%
    01:00 +21°C° 0 mm 0 m/S 736 mmHg 69%
    02:00 +21°C° 0 mm 0 m/S 735 mmHg 70%
    03:00 +20°C° 0 mm 0 m/S 735 mmHg 71%
    04:00 +22°C° 0 mm 1 m/S 735 mmHg 72%
    05:00 +24°C° 0 mm 1 m/S 735 mmHg 66%
    06:00 +25°C° 0 mm 1 m/S 735 mmHg 60%
    07:00 +27°C° 0 mm 1 m/S 735 mmHg 54%
    08:00 +29°C° 0 mm 1 m/S 735 mmHg 49%
    09:00 +30°C° 0 mm 2 m/S 735 mmHg 44%
    10:00 +32°C° 0 mm 2 m/S 735 mmHg 39%
    11:00 +33°C° 0 mm 3 m/S 735 mmHg 39%
    12:00 +34°C° 0 mm 3 m/S 734 mmHg 38%
    13:00 +34°C° 0 mm 4 m/S 734 mmHg 37%
    14:00 +34°C° 0 mm 4 m/S 734 mmHg 39%
    15:00 +33°C° 0 mm 3 m/S 734 mmHg 40%
    16:00 +33°C° 0 mm 3 m/S 733 mmHg 42%
    17:00 +30°C° 0 mm 2 m/S 733 mmHg 49%
    18:00 +28°C° 0 mm 2 m/S 733 mmHg 55%
    19:00 +26°C° 0 mm 1 m/S 733 mmHg 62%
    20:00 +25°C° 0 mm 1 m/S 734 mmHg 64%
    21:00 +24°C° 0 mm 1 m/S 734 mmHg 66%
    22:00 +21°C° 0 mm 0 m/S 734 mmHg 67%
    23:00 +23°C° 0 mm 1 m/S 734 mmHg 67%

    28 Juli, Sonntag

    Zeit Temperatur Niederschläge Wind Luftdruck Luftfeuchtigkeit
    00:00 +23°C° 0 mm 1 m/S 734 mmHg 67%
    01:00 +23°C° 0 mm 1 m/S 734 mmHg 67%
    02:00 +23°C° 0 mm 1 m/S 733 mmHg 67%
    03:00 +22°C° 0 mm 1 m/S 733 mmHg 67%
    04:00 +22°C° 0 mm 1 m/S 733 mmHg 66%
    05:00 +23°C° 0.6 mm 1 m/S 733 mmHg 66%
    06:00 +24°C° 0.6 mm 1 m/S 733 mmHg 65%
    07:00 +25°C° 0.6 mm 1 m/S 733 mmHg 65%
    08:00 +26°C° 1.5 mm 1 m/S 733 mmHg 65%
    09:00 +26°C° 1.5 mm 1 m/S 733 mmHg 65%
    10:00 +27°C° 1.5 mm 1 m/S 733 mmHg 65%
    11:00 +28°C° 0.4 mm 1 m/S 733 mmHg 59%
    12:00 +30°C° 0.4 mm 1 m/S 733 mmHg 52%
    13:00 +31°C° 0.4 mm 2 m/S 733 mmHg 46%
    14:00 +31°C° 0.4 mm 2 m/S 733 mmHg 47%
    15:00 +30°C° 0.4 mm 2 m/S 732 mmHg 48%
    16:00 +30°C° 0.4 mm 2 m/S 732 mmHg 49%
    17:00 +28°C° 0.2 mm 2 m/S 732 mmHg 55%
    18:00 +26°C° 0.2 mm 1 m/S 733 mmHg 61%
    19:00 +25°C° 0.2 mm 1 m/S 733 mmHg 67%
    20:00 +24°C° 0.2 mm 1 m/S 733 mmHg 71%
    21:00 +23°C° 0.2 mm 1 m/S 733 mmHg 75%
    22:00 +23°C° 0.2 mm 1 m/S 734 mmHg 79%
    23:00 +22°C° 0 mm 1 m/S 734 mmHg 79%
    Mehr zeigen